Probability
0 0 0 0 0 0 0 0 0 0 1 3 3 3 2 1 0 0 0 1 0 0 0 0 0 0 0 0 0 0 1 3 3 4 5 5 4 3 3 4 5 5 4
0 0 0 0 0 0 0 0 0 1 2 3 3 3 3 2 1 0 0 1 1 1 0 0 0 0 0 0 0 0 1 2 2 3 4 4 4 4 4 4 5 4 4
0 0 0 0 0 0 0 0 0 1 2 3 3 3 3 3 1 0 0 1 2 2 1 1 0 0 0 0 0 0 1 1 1 1 2 2 3 4 5 5 4 3 3
0 0 0 0 0 0 0 0 0 1 2 3 3 3 3 2 1 0 0 0 1 2 2 1 0 0 0 0 0 0 0 0 1 1 1 1 2 3 4 4 3 2 2
0 0 0 0 0 0 0 0 0 1 2 3 3 3 2 1 1 0 0 0 0 1 1 0 0 0 0 0 0 0 1 1 2 2 1 0 1 2 2 2 1 1 1
0 0 0 0 0 0 0 0 0 0 1 2 3 2 1 0 0 0 0 0 0 0 0 0 0 0 0 0 0 0 0 1 2 2 1 0 0 1 1 1 0 0 1
0 0 0 0 0 0 0 0 0 0 0 1 2 1 0 0 0 0 0 0 0 0 0 0 0 0 1 1 0 0 0 0 1 2 2 1 1 1 0 0 0 0 1
0 0 0 0 0 0 0 0 0 0 0 0 0 0 0 0 0 0 0 0 0 0 0 0 0 1 2 2 1 0 0 0 1 2 3 2 1 0 0 0 0 0 0
0 0 0 0 0 0 0 0 0 0 0 0 0 0 0 0 0 0 0 0 0 0 0 0 1 2 3 2 1 0 0 0 1 2 2 2 1 0 0 0 0 0 1
0 0 0 0 0 0 0 0 0 0 0 0 0 0 0 0 0 0 0 0 0 0 0 0 1 2 3 2 1 0 0 0 1 1 1 1 0 0 0 0 0 0 1
0 0 0 0 0 0 0 0 0 0 0 0 0 0 0 0 0 0 0 0 1 2 1 1 1 3 3 2 1 0 0 0 1 1 0 0 0 0 0 0 0 0 1
0 0 0 0 0 0 0 0 0 0 0 0 0 0 0 0 0 0 0 0 2 3 3 2 3 3 3 2 1 0 0 0 0 0 0 0 0 0 0 0 0 0 0
0 0 0 0 0 0 0 0 0 0 0 0 0 0 0 0 0 0 0 0 1 2 3 3 3 3 3 2 1 0 0 0 0 0 0 0 0 0 0 0 0 0 0
0 0 0 0 0 0 0 0 0 0 0 0 0 0 0 0 0 0 0 0 0 1 3 3 3 3 3 2 1 0 0 0 0 0 0 0 0 0 0 0 0 0 0
0 0 0 0 0 0 0 0 0 0 0 0 0 0 0 0 0 0 0 0 0 1 2 3 3 3 3 1 0 0 0 0 0 0 0 0 0 0 0 0 0 0 0
0 0 0 0 0 0 0 0 0 0 0 0 0 0 0 0 0 0 0 0 0 0 1 3 3 3 2 1 0 0 0 0 0 0 0 0 0 0 0 0 0 0 0
0 0 0 0 0 0 0 0 0 0 0 0 0 0 0 0 0 0 0 0 0 0 1 2 2 1 1 0 0 0 0 0 0 0 0 0 0 0 0 0 0 0 0
0 0 0 0 0 0 0 0 0 0 0 0 0 0 0 0 0 0 0 0 0 0 0 1 1 0 0 0 0 0 0 0 0 0 0 0 0 0 0 0 0 0 0
0 0 0 0 0 0 0 0 0 0 0 0 0 0 0 0 0 0 0 0 0 0 0 0 0 0 0 0 0 0 0 0 0 0 0 0 0 0 0 0 0 0 0
0 0 0 0 0 0 0 0 0 0 0 0 0 0 0 0 0 0 0 0 0 0 0 0 0 0 0 0 0 0 0 0 0 0 0 0 0 0 0 0 0 0 0
0 0 0 0 0 0 0 0 0 0 0 0 0 0 0 0 0 0 0 0 0 0 0 0 0 0 0 0 0 0 0 0 0 0 0 0 0 0 0 0 0 0 0
0 0 0 0 0 0 0 0 0 0 0 0 0 0 0 0 0 0 0 0 0 0 0 0 0 0 0 0 0 0 0 0 0 0 0 0 0 0 0 0 0 0 0
1 1 0 0 0 0 0 0 0 0 0 0 0 0 0 0 0 0 0 0 0 0 0 0 0 0 0 0 0 0 0 0 0 0 0 0 0 0 0 0 0 0 0
2 2 1 0 0 0 0 0 0 0 0 0 0 0 0 0 0 0 0 0 0 0 0 0 0 0 0 0 0 0 0 0 0 0 0 0 0 0 0 0 0 0 0
3 3 2 1 0 0 0 0 0 0 0 0 0 0 0 0 0 0 0 0 0 0 0 0 0 0 0 0 0 0 0 0 0 0 0 0 0 0 0 0 0 0 0
3 3 2 1 0 0 0 0 0 0 0 0 0 0 0 0 0 0 0 0 0 0 0 0 0 0 0 0 0 0 0 0 0 0 0 0 0 0 0 0 0 0 0
Wind_Speed
3 4 4 3 4 3 3 3 4 5 5 5 5 6 5 5 5 5 5 10 10 10 10 10 9 9 9 10 10 10 9 8 7 7 7 7 7 6 5 5 4 4 4
3 3 4 4 4 4 4 4 5 4 5 5 6 6 6 5 5 6 5 7 11 11 11 11 10 10 10 10 10 11 10 8 8 8 8 8 7 6 5 5 5 5 5
4 4 3 4 4 4 4 4 6 4 5 5 6 6 6 6 6 7 6 5 6 10 12 12 12 12 11 11 11 11 11 10 9 9 8 8 8 7 6 6 6 5 6
4 4 3 3 3 3 3 4 4 4 5 5 6 6 6 6 7 7 6 6 6 6 9 13 13 13 12 12 11 11 10 10 9 9 9 8 8 8 7 7 7 6 6
4 4 3 3 4 3 3 3 4 4 5 5 6 5 6 6 6 7 7 8 7 6 6 8 11 13 13 13 12 11 11 10 10 9 9 9 9 9 8 8 8 8 7
4 4 3 3 3 3 3 4 5 4 4 4 5 5 5 5 5 6 6 6 7 8 7 7 6 7 12 13 13 13 12 11 10 9 9 9 9 9 8 8 8 8 8
3 3 2 3 2 3 3 4 4 5 3 3 3 4 5 6 5 5 5 5 7 7 7 7 6 5 5 9 12 13 12 11 10 10 9 9 9 9 9 9 9 9 8
3 2 3 3 3 3 3 3 3 2 2 0 0 1 2 3 3 4 4 5 5 5 6 7 7 7 6 5 8 12 12 11 10 10 10 9 9 9 9 9 9 9 9
3 2 2 2 2 2 3 2 2 1 1 1 2 3 2 2 2 3 4 4 4 4 5 6 7 7 7 6 6 9 13 12 11 10 9 9 9 9 9 9 9 9 9
3 2 2 2 2 2 2 1 1 0 0 1 1 2 3 3 1 2 2 3 4 4 5 5 5 6 7 6 7 10 12 12 11 10 10 9 9 9 8 8 8 8 8
3 3 2 2 2 2 2 1 1 1 1 2 2 1 2 1 2 1 1 2 2 3 4 4 4 5 6 6 5 9 11 11 11 11 10 9 8 8 8 8 8 8 8
2 3 2 2 2 2 1 1 1 1 1 2 2 1 1 1 1 1 1 1 1 2 2 3 4 4 4 5 7 9 10 11 11 11 11 10 9 9 9 8 8 8 8
2 3 2 2 2 2 1 1 0 0 0 1 1 1 1 2 2 1 1 1 1 1 1 2 3 3 3 4 5 6 9 10 10 10 10 10 10 9 9 8 8 7 8
2 3 2 2 3 2 2 1 1 1 1 1 1 1 1 1 1 1 1 1 0 1 1 2 2 3 3 3 5 4 5 8 8 8 9 9 9 9 9 9 8 8 7
2 3 3 2 3 2 1 1 1 1 1 1 1 1 1 1 1 1 1 2 2 1 1 2 1 2 2 2 3 3 4 6 6 6 7 7 7 7 7 7 7 7 7
3 3 3 3 3 3 2 1 1 2 1 2 1 2 2 1 1 1 1 1 2 3 2 2 1 2 2 1 2 3 3 3 3 4 4 5 5 5 6 6 6 6 6
4 3 3 2 2 2 2 2 1 1 1 2 2 2 2 2 1 1 1 0 1 1 1 1 1 1 1 2 1 2 2 2 2 2 2 3 3 4 4 4 4 5 5
4 3 3 2 2 2 2 2 2 1 1 1 1 1 1 1 1 1 0 0 0 1 2 1 0 1 1 2 2 2 2 2 2 2 1 2 3 3 3 3 4 4 4
4 4 3 3 2 2 2 1 2 1 1 1 1 1 1 1 0 1 0 0 1 1 1 1 1 1 1 1 2 2 2 2 2 1 2 3 3 3 3 3 4 4 4
4 4 4 3 3 2 2 2 2 2 1 1 1 0 0 0 0 0 0 0 1 0 1 1 1 1 1 1 2 3 3 2 2 2 2 3 3 5 5 5 5 5 5
4 4 4 3 3 2 1 2 2 2 1 1 1 1 1 2 3 2 1 1 1 1 1 1 2 2 2 2 2 3 3 3 3 2 3 3 3 4 4 6 7 7 6
4 4 4 4 3 2 2 1 2 2 2 2 1 1 2 2 2 2 1 2 2 2 3 2 3 3 4 3 3 3 4 4 4 1 4 4 3 4 4 4 2 4 6
5 4 4 4 4 4 4 4 4 3 2 1 1 1 1 1 2 2 3 4 3 3 4 5 4 4 4 4 4 4 4 5 5 4 4 5 4 5 5 3 3 5 7
5 5 4 5 4 3 5 5 5 5 3 2 2 2 2 2 1 2 2 2 2 1 2 4 4 5 5 4 4 5 6 6 6 4 3 5 5 5 5 5 4 6 8
5 5 4 4 4 4 5 5 5 3 3 3 2 1 2 1 2 1 3 3 3 2 2 2 4 4 4 3 4 4 4 5 6 4 2 4 6 6 6 6 4 6 8
4 4 4 4 4 3 4 5 5 3 3 2 2 2 1 1 1 1 3 3 3 3 3 2 3 4 4 3 5 5 4 5 6 5 2 3 6 6 6 4 4 4 6
Wind_Direction
78 85 85 77 72 78 86 76 74 73 71 64 62 64 60 61 57 60 69 55 43 43 46 43 41 46 48 46 44 43 43 46 44 40 34 33 45 51 50 43 38 40 39
78 78 80 74 69 71 72 82 80 75 70 67 65 65 59 59 56 60 63 70 59 48 46 45 43 47 49 49 46 43 43 47 47 42 38 37 40 42 45 49 50 50 47
79 76 74 80 80 86 87 77 78 76 74 74 70 65 64 53 54 55 54 51 65 64 52 46 44 44 48 48 46 43 41 44 46 42 39 39 41 45 49 52 53 51 50
84 83 82 83 90 89 89 87 81 83 79 70 66 61 63 58 54 54 56 56 52 54 62 50 45 43 43 44 44 43 41 43 45 44 43 42 41 46 52 55 55 57 54
87 93 83 89 97 90 87 90 84 81 83 80 76 65 58 57 53 52 55 54 55 48 50 57 51 45 41 39 38 38 40 44 45 46 47 46 46 49 54 55 54 57 55
79 93 102 103 97 95 91 93 97 88 83 85 81 73 62 62 57 51 49 52 50 48 43 41 46 54 46 37 33 34 35 38 44 47 48 49 49 49 53 56 56 56 56
84 92 100 102 99 97 96 108 109 109 98 96 102 97 87 68 58 58 48 48 53 47 45 43 37 32 47 46 34 30 31 34 43 49 50 50 50 49 50 57 58 55 53
79 93 101 109 109 109 116 116 121 109 102 55 1 138 133 119 72 60 59 52 47 46 44 42 40 37 30 35 40 29 27 33 44 51 50 50 51 52 54 56 55 53 52
81 77 88 104 113 125 122 132 144 143 113 95 20 344 350 60 104 92 59 60 56 46 43 39 37 35 33 32 33 35 27 29 40 46 48 48 51 56 60 58 56 52 50
83 85 99 103 114 107 117 136 114 48 340 52 70 21 14 24 316 125 115 77 60 49 41 38 34 34 33 36 38 34 28 26 31 40 46 50 50 52 58 59 57 52 51
83 85 93 99 102 100 102 94 76 349 359 358 5 34 50 34 304 324 89 98 86 62 44 35 32 30 30 33 31 34 30 28 30 34 40 46 48 50 55 56 58 56 56
109 101 97 98 97 92 90 69 73 31 347 358 349 355 343 336 342 355 8 90 65 64 58 42 31 31 27 31 39 31 34 32 33 33 34 40 42 47 51 50 50 51 53
133 117 116 108 96 88 78 56 53 352 318 339 343 352 357 349 347 335 341 60 72 90 79 73 43 31 26 29 40 22 46 34 34 35 36 37 38 39 40 39 42 46 49
131 125 119 101 95 90 90 76 18 34 13 59 43 26 14 25 9 344 343 339 67 112 93 58 67 38 28 31 26 344 53 39 32 35 36 37 36 35 36 37 37 37 37
132 134 133 123 113 106 80 71 53 67 60 50 53 63 45 60 19 1 347 327 324 337 62 67 62 52 30 36 11 11 33 46 31 30 34 35 35 31 29 31 32 31 29
151 158 150 139 130 124 117 86 73 54 82 83 49 41 45 60 53 42 26 352 335 331 9 52 49 55 40 23 36 356 19 57 46 29 30 31 29 25 23 22 22 22 21
170 171 162 156 141 137 134 126 109 106 87 100 107 93 79 51 73 74 58 13 339 329 342 46 60 42 24 355 15 342 344 337 70 73 25 15 11 7 8 4 5 4 0
177 183 168 167 145 146 147 142 135 138 120 74 79 82 83 92 54 37 18 343 3 332 321 343 8 352 328 345 334 324 323 326 328 84 17 331 330 330 340 345 347 345 341
181 185 187 184 168 164 160 162 157 158 147 124 97 74 67 100 125 94 10 347 356 3 325 295 335 1 305 325 308 299 292 298 297 227 223 253 269 279 288 305 311 312 314
191 191 189 187 184 180 188 191 182 183 172 150 137 120 23 359 352 35 230 332 323 303 295 285 295 292 295 313 291 296 296 279 283 291 282 266 247 246 251 266 276 284 290
198 193 190 188 185 190 199 222 198 193 187 167 172 150 70 39 24 0 341 324 296 280 274 281 287 290 287 290 297 298 298 301 288 280 285 270 258 257 243 236 246 263 272
195 186 192 191 186 177 138 207 257 205 197 192 194 195 155 154 148 185 263 317 315 295 294 284 284 289 302 300 303 293 294 298 296 278 284 282 270 271 270 267 257 254 265
185 187 193 194 194 164 156 183 226 240 220 225 231 216 188 169 208 224 191 201 217 240 272 288 290 297 303 309 297 285 286 292 297 314 299 287 279 276 276 271 239 257 266
183 191 196 198 196 170 162 185 207 224 219 218 226 239 226 217 183 276 259 248 259 254 257 262 280 295 311 317 299 293 297 290 287 279 277 288 291 288 289 279 234 246 261
187 191 194 199 198 179 165 183 205 206 213 212 212 229 261 264 78 277 258 262 273 270 200 243 298 308 328 319 302 284 281 281 287 284 247 280 299 302 291 280 261 233 250
187 185 184 195 195 185 153 174 209 213 217 212 202 204 137 297 39 263 261 270 280 293 292 254 245 244 258 240 231 258 280 286 294 297 307 286 299 309 297 282 286 278 263